#timestamp,LO_Frequency,Hit 
1500566415.1,286046999.9,N
1500566435.9,286047000.2,N
1500566455.7,286047000.1,N
1500566475.5,286047001.0,N
1500566495.4,286047000.3,N
1500566515.2,286046998.5,N
1500566535.1,286047001.0,N
1500566536.0,286047001.0,N
1500566555.8,286047001.2,N
1500566575.6,286047000.9,N
1500566595.5,286047000.7,N
1500566615.3,286047000.4,N
1500566635.1,286047000.7,N
1500566655.9,286047000.5,N
1500566675.7,286047000.5,N
1500566695.6,286047000.9,N
1500566715.4,286047000.3,N
1500566735.2,286047000.1,N
1500566755.1,286046999.8,N
1500566756.0,286046999.8,N
1500566775.8,286046999.8,N
1500566795.7,286047000.4,N
1500566815.5,286047000.1,N
1500566835.3,286047002.4,N
1500566855.2,286047000.2,N
1500566875.0,286047000.3,N
1500566875.9,286047000.3,N
1500566895.8,286046999.8,N
1500566915.6,286047000.4,N
1500566935.4,286046998.1,N
1500566955.3,286046998.1,N
1500566975.1,286047000.8,N
1500566995.8,286047000.6,N
1500567015.7,286047000.5,N
1500567035.5,286047011.9,N
1500567055.4,286046998.1,N
1500567075.2,286047000.6,N
1500567095.0,286046998.6,N
1500567095.9,286046998.6,N
1500567115.8,286046998.2,N
1500567135.6,286046998.7,N
1500567155.5,286047001.1,N
1500567175.3,286047001.0,N
1500567195.1,286047000.0,N
1500567215.9,286047000.0,N
1500567235.7,286047000.9,N
1500567255.6,286047000.0,N
1500567275.4,286047000.1,N
1500567295.2,286046999.8,N
1500567315.1,286047000.5,N
1500567316.0,286047000.5,N
1500567335.8,286047000.3,N
1500567355.6,286047000.6,N
1500567375.5,286047000.3,N
1500567395.3,286046999.8,N
1500567415.2,286047000.3,N
1500567435.9,286047002.1,N
1500567455.7,286047000.6,N
1500567475.6,286046999.9,N
1500567495.4,286047000.9,N
1500567515.3,286047000.4,N
1500567535.1,286046999.9,N
1500567536.0,286046999.9,N
1500567555.8,286047000.1,N
1500567575.7,286047000.0,N
1500567595.5,286046999.9,N
1500567615.3,286047002.8,N
1500567635.2,286046999.9,N
1500567655.0,286047000.4,N
1500567655.9,286047000.4,N
1500567675.8,286047000.9,N
1500567695.6,286047000.0,N
1500567715.4,286047000.5,N
1500567735.3,286047002.7,N
1500567755.1,286047002.0,N
1500567775.9,286047002.5,N
1500567795.7,286047002.5,N
1500567815.5,286047000.1,N
1500567835.4,286046999.9,N
1500567855.2,286047000.6,N
1500567875.0,286047000.6,N
1500567875.9,286047000.6,N
1500567895.8,286047000.4,N
1500567915.6,286047001.0,N
1500567935.5,286047000.5,N
1500567955.3,286047000.0,N
1500567975.1,286047000.9,N
1500567995.9,286047000.2,N
1500568015.7,286046999.7,N
1500568035.6,286047000.2,N
1500568055.4,286047000.0,N
1500568075.2,286047001.2,N
1500568095.1,286047000.3,N
1500568096.0,286047000.3,N
1500568115.8,286047002.8,N
1500568135.7,286047000.2,N
1500568155.5,286047000.3,N
1500568175.3,286047000.2,N
1500568195.2,286047000.4,N
1500568215.0,286047000.2,N
1500568215.9,286047000.2,N
1500568235.8,286047000.6,N
1500568255.6,286047000.9,N
1500568275.4,286047000.4,N
1500568295.3,286047000.8,N
1500568315.1,286046998.3,N
1500568335.8,286047001.0,N
1500568355.7,286047001.2,N
1500568375.5,286047000.8,N
1500568395.4,286047001.0,N
1500568415.2,286047000.9,N
1500568435.0,286047001.1,N
1500568435.9,286047001.1,N
1500568455.8,286047001.1,N
1500568475.6,286047000.9,N
1500568495.4,286046998.5,N
1500568515.3,286046999.4,N
1500568535.1,286046998.8,N
1500568555.9,286046998.6,N
1500568575.7,286046999.4,N
1500568595.5,286046998.7,N
1500568615.4,286046998.8,N
1500568635.2,286046999.3,N
1500568655.1,286046998.7,N
1500568656.0,286046998.7,N
1500568675.8,286046998.5,N
1500568695.6,286046999.6,N
1500568715.5,286046996.7,N
1500568735.3,286046999.1,N
1500568755.1,286046997.2,N
1500568775.9,286046997.4,N
1500568795.7,286046997.5,N
1500568815.6,286046997.8,N
1500568835.4,286046997.1,N
1500568855.2,286046997.4,N
1500568875.1,286046997.8,N
1500568876.0,286046997.8,N
1500568895.8,286046997.2,N
1500568915.7,286046997.2,N
1500568935.5,286046997.4,N
1500568955.3,286046997.1,N
1500568975.2,286046997.4,N
1500568995.9,286046997.1,N
1500569015.7,286046995.0,N
1500569035.6,286046995.1,N
1500569055.4,286046994.9,N
1500569075.3,286046995.7,N
1500569095.1,286046995.7,N
1500569096.0,286046995.7,N
1500569115.8,286046995.1,N
1500569135.7,286046995.4,N
1500569155.5,286046997.5,N
1500569175.3,286046997.8,N
1500569195.2,286046994.9,N
1500569215.0,286046994.9,N
1500569215.9,286046994.9,N
1500569235.8,286046998.0,N
1500569255.6,286046994.9,N
1500569275.4,286046995.5,N
1500569295.3,286046995.1,N
1500569315.1,286046995.1,N
1500569335.9,286046995.8,N
1500569355.7,286046996.3,N
1500569375.5,286046995.2,N
1500569395.4,286046995.2,N
1500569415.2,286046996.1,N
1500569435.1,286046994.1,N
1500569436.0,286046994.1,N
1500569455.8,286046996.0,N
1500569475.6,286046995.2,N
1500569495.5,286046996.3,N
1500569515.3,286046995.2,N
1500569535.2,286046995.5,N
1500569555.9,286046995.7,N
1500569575.7,286046993.8,N
1500569595.6,286046996.4,N
1500569615.4,286046994.0,N
1500569635.2,286046993.3,N
1500569655.1,286046994.2,N
1500569656.0,286046994.2,N
1500569675.8,286046993.8,N
1500569695.7,286046994.5,N
1500569715.5,286046993.9,N
1500569735.3,286046993.6,N
1500569755.2,286046994.2,N
1500569775.0,286046994.8,N
1500569775.9,286046994.8,N
1500569795.8,286046994.1,N
1500569815.6,286046991.8,N
1500569835.4,286046994.5,N
1500569855.3,286046994.2,N
1500569875.1,286046994.0,N
1500569895.8,286046993.3,N
1500569915.7,286046993.8,N
1500569935.5,286046994.0,N
1500569955.4,286046993.9,N
1500569975.2,286046993.9,N
1500569995.0,286046996.4,N
1500569995.9,286046996.4,N
